Regional Weather Roundup
Issued by NWS

Home | Current Version | Previous Version | Text Only | Print | Product List | Glossary On
Versions: 1 2 3 4 5 6 7 8 9 10 11 12 13 14 15 16 17 18 19 20 21 22 23 24 25 26 27 28 29 30 31 32 33 34 35 36 37 38 39 40 41 42 43 44 45 46 47 48 49 50
000
ASUS43 KDTX 261401
RWRMI
MICHIGAN HOURLY REGIONAL WEATHER ROUNDUP
NATIONAL WEATHER SERVICE DETROIT/PONTIAC MI
1000 AM EDT THU MAR 26 2015

NOTE: "FAIR" INDICATES FEW OR NO CLOUDS BELOW 12,000 FEET WITH NO
SIGNIFICANT WEATHER AND/OR OBSTRUCTION TO VISIBILITY.

MIZ047>049-052>055-059>063-066>070-074>076-081>083-261500-
SOUTHEAST LOWER MICHIGAN

CITY           SKY/WX    TMP DP  RH WIND       PRES   REMARKS
ADRIAN         CLOUDY    35  33  92 NW5       29.90S FOG     WCI  31
ALMA           CLOUDY    37  31  78 W9        29.89S WCI  31
ANN ARBOR      CLOUDY    38  34  85 W8        29.89S WCI  32
BAD AXE        CLOUDY    37  31  81 W8        29.85F WCI  30
CARO           CLOUDY    37  32  82 SW6       29.86F WCI  32
DETROIT CITY   LGT RAIN  39  34  82 SW6       29.88F WCI  35
DETROIT        LGT RAIN  37  34  89 SW7       29.89F FOG     WCI  32
FLINT          CLOUDY    39  29  67 W13       29.89S WCI  31
GROSSE ILE     SNOW      34  30  86 CALM      29.87F VSB 1/2
HILLSDALE      CLOUDY    37  31  78 NW8       29.89S WCI  31
HOWELL         CLOUDY    37  32  84 W7        29.88S WCI  31

CITY           SKY/WX    TMP DP  RH WIND       PRES   REMARKS
JACKSON        CLOUDY    36  29  75 NW7       29.89S WCI  30
LAMBERTVILLE   LGT SNOW  34  32  93 CALM      29.90F VSB 3/4
LANSING        CLOUDY    37  28  70 W12       29.91R WCI  29
LAPEER         CLOUDY    37  31  80 W6        29.87S WCI  32
MASON          CLOUDY    36  29  76 W6        29.90R WCI  31
MONROE         SNOW      34  32  93 CALM      29.88F VSB 1/2
MT. CLEMENS    LGT RAIN  38  33  80 CALM      29.85S
PONTIAC        CLOUDY    37  31  78 W8        29.86F WCI  31
PORT HOPE        N/A     37  29  72 W6        29.83S WCI  32
PORT HURON     CLOUDY    37  32  81 W3        29.87F
TRI CITIES     CLOUDY    38  29  70 W9        29.88S WCI  31
TROY           CLOUDY    39  34  83 CALM      29.89F
SAGINAW HB     CLOUDY    37  32  81 W8        29.87F WCI  31
$$
MIZ043>046-050>051-056>058-064>065-071>073-077>080-261500-
SOUTHWEST LOWER MICHIGAN

CITY           SKY/WX    TMP DP  RH WIND       PRES   REMARKS
BATTLE CREEK   CLOUDY    37  28  70 NW9       29.92R WCI  30
BENTON HARBOR  CLOUDY    36  29  75 NW9       29.95S WCI  29
BIG RAPIDS     CLOUDY    35  27  71 NW7       29.87S WCI  30
COLDWATER      CLOUDY    37  29  73 NW7       29.91S WCI  31
FREMONT        CLOUDY    36  25  64 NW10      29.90R WCI  29
HOLLAND        CLOUDY    38  27  64 NW9       29.94R WCI  31
GRAND RAPIDS   CLOUDY    37  26  64 W10       29.91R WCI  30
IONIA          CLOUDY    38  28  66 W9        29.89S WCI  31
KALAMAZOO      CLOUDY    37  27  67 NW9       29.93R WCI  30
LUDINGTON      CLOUDY    38  28  67 W6        29.91R WCI  33
MARSHALL       CLOUDY    36  28  71 NW9       29.91R WCI  29
MOUNT PLEASANT CLOUDY    37  28  72 W6        29.88R WCI  32
MUSKEGON       CLOUDY    38  26  62 NW10      29.92S WCI  31
SOUTH HAVEN    CLOUDY    37  29  72 NW7       29.94F WCI  32
$$
MIZ016>042-261500-
NORTHERN LOWER MICHIGAN

CITY           SKY/WX    TMP DP  RH WIND       PRES   REMARKS
ALPENA         CLOUDY    35  28  75 SW5       29.83R WCI  31
BEAVER ISLAND  CLOUDY    33  28  83 W7        29.83R WCI  27
BELLAIRE       CLOUDY    36  26  69 W5        29.86R WCI  32
CADILLAC       CLOUDY    34  25  69 W14       29.84S WCI  24
CHARLEVOIX     CLOUDY    34  29  82 W14       29.87R WCI  24
FRANKFORT      CLOUDY    37  27  65 NW9       29.88S WCI  31
GAYLORD        CLOUDY    32  25  75 W8        29.81R WCI  25
GRAYLING       CLOUDY    34  24  68 W6        29.84R WCI  29
HARBOR SPRINGS CLOUDY    33  29  84 SW6       29.83R WCI  28
HOUGHTON LAKE  CLOUDY    34  24  67 W9        29.84R WCI  27
MANISTEE       CLOUDY    36  25  64 W12       29.90R WCI  27
OSCODA         CLOUDY    36  31  82 SW7       29.84S WCI  30
PELLSTON       CLOUDY    35  27  72 W9        29.82R WCI  28
ROGERS CITY    CLOUDY    36  30  78 W7        29.82S WCI  30
TRAVERSE CITY  CLOUDY    36  26  67 W13       29.85R WCI  27
$$
MIZ007>008-015-261500-
EASTERN UPPER MICHIGAN

CITY           SKY/WX    TMP DP  RH WIND       PRES   REMARKS
KINROSS        CLOUDY    34  32  93 W7        29.78R WCI  28
MACKINAC ISLAN CLOUDY    33  30  88 W8        29.80R WCI  26
NEWBERRY       CLOUDY    31  28  90 W12       29.78S WCI  22
S. S. MARIE    LGT SNOW  32  30  92 W8        29.77S FOG     WCI  25
$$
MIZ004>006-011>014-085-261500-
CENTRAL UPPER MICHIGAN

CITY           SKY/WX    TMP DP  RH WIND       PRES   REMARKS
MANISTIQUE     CLOUDY    30  27  89 NW14G24   29.83R WCI  20
ESCANABA       CLOUDY    32  21  64 NW14G22   29.87R WCI  22
MENOMINEE      PTSUNNY   34  19  55 NW13G20   29.89R WCI  25
SAWYER-GWINN   CLOUDY    23  16  74 N22G29    29.88R WCI   8
$$
MIZ001>003-009>011-084-261500-
WESTERN UPPER MICHIGAN

CITY           SKY/WX    TMP DP  RH WIND       PRES   REMARKS
IRON MOUNTAIN  FLURRIES  26  18  71 N16G28    29.88R WCI  14
HOUGHTON       HAZE      16  11  80 N17G26    29.98R VSB 1   WCI   0
COPPER HARBOR    N/A     19  15  84 NE23G29   29.97R WCI   2
IRONWOOD       CLOUDY    19  16  86 N14       30.00R WCI   6
$$

ABBREVIATIONS USED IN REMARKS
   TC - TEMPERATURE IN CELSIUS
  WCI - WIND CHILL INDEX
   HX - HEAT INDEX
  VSB - VISIBILITY



USA.gov is the U.S. government's official web portal to all federal, state and local government web resources and services.